clima

HORA PREDICCIÓN TEMPERATURA VIENTO HUMEDAD
2022-05-26 01:00:00 Despejado 5 7.02 0.68
2022-05-26 02:00:00 Despejado 4 6.98 0.68
2022-05-26 03:00:00 Despejado 4 6.94 0.68
2022-05-26 04:00:00 Despejado 4 6.83 0.68
2022-05-26 05:00:00 Despejado 4 6.64 0.68
2022-05-26 06:00:00 Despejado 3 6.2 0.69
2022-05-26 07:00:00 Despejado 3 5.63 0.69
2022-05-26 08:00:00 Despejado 3 7.06 0.72
2022-05-26 09:00:00 Parcialmente nublado 4 7.4 0.71
2022-05-26 10:00:00 Parcialmente nublado 6 7.76 0.68
2022-05-26 11:00:00 Parcialmente nublado 7 8.13 0.65
2022-05-26 12:00:00 Parcialmente nublado 8 8.62 0.64
2022-05-26 13:00:00 Parcialmente nublado 9 9.67 0.63
2022-05-26 14:00:00 Parcialmente nublado 10 10.01 0.64
2022-05-26 15:00:00 Parcialmente nublado 9 10.3 0.66
2022-05-26 16:00:00 Parcialmente nublado 9 10.14 0.68
2022-05-26 17:00:00 Despejado 8 9.67 0.7
2022-05-26 18:00:00 Despejado 8 8.95 0.7
2022-05-26 19:00:00 Parcialmente nublado 7 8.4 0.71
2022-05-26 20:00:00 Parcialmente nublado 7 8.37 0.71
2022-05-26 21:00:00 Parcialmente nublado 7 7.93 0.7
2022-05-26 22:00:00 Parcialmente nublado 6 7.28 0.71
2022-05-26 23:00:00 Parcialmente nublado 6 6.3 0.71

Mesón de informaciones

(56 65) 229 4161

Horario

24 horas del día.

Edificio Terminal de pasajeros,

Aeropuerto El Tepual Puerto Montt

Región de los Lagos, Chile.